SL-14 R/B, 16144

Orbit data source: Space-Track

SL-14 R/B, 16144 is space debris in LEO originally from a launch on Wed, 09 Oct 1985 UTC launched from the Plesetsk Missile And Space Complex (PKMTR). Debris objects in space refer to the collection of defunct objects orbiting the Earth. Examples of debris include non-operational satellites, rocket bodies, and fragments generated from explosions, collisions, or faulty payload assembly.

Loading next visibility...
Identifier
16144, 1985-094G
Orbit
LEO
Last TLE update
16 hours ago
Origin
Manufacturer
Yuzhnoe
Mission
Spacecraft
Bus & Motor
S5M, Unknown motor
Mass
1,600 kg wet, 1,600 kg dry
Launch date (UTC)
1985-10-09 (40 years ago)
Launch vehicle
Unknown
Launch site
Plesetsk Missile And Space Complex (PKMTR)
Object type
Payload
Rocket body
Debris
Shape & HBR
Cyl, 2.7 m
Radar Cross Section
7.351 m², Large (>1 m²)

Expand to show TLE details & history

TLE from 16 hours ago
0 SL-14 R/B
1 16144U 85094G   25185.75670747  .00000018  00000-0  44081-4 0  9996
2 16144  82.6082 271.2999 0036887 151.6038 329.4963 12.54890312820178
Epoch: 2025-07-04T18:09Z
TLE epoch observation values (Epoch: 2025-07-04T18:09:39.525Z)
Latitude
58.41799°
Longitude
-116.24069°
Altitude
1,429.081 km
Speed
7.163 km/s
True Right ascension
05h 16m 42s
True Declination
58° 16' 39"
Sunlit
Object was in daylight at epoch
Visualization orbit readout
Latitude
-26.00508°
Longitude
71.84059°
Altitude
1,482.436 km
Speed
7.108 km/s
Apparent Right ascension
15h 07m 24s
Apparent Declination
-46° 30' 37"
Sunlit
Object is in full shadow
Visualization observer readout
Local Sidereal Time
22:30:16
Azimuth
238.129° WSW
Elevation
-40.711°
Doppler factor
1
Orbital elements
Apogee altitude
1,470.281 km
Perigee altitude
1,412.592 km
Semi-major axis
7,819.574 km
Eccentricity
0.00369
Inclination
82.6082°
RAAN
271.2999°
Arg. of periapsis
151.6038°
True anomaly
Unknown
Mean anomaly
329.4963°
Eccentric anomaly
Unknown
Mean motion
3.13884 °/min
Orbital period
114.69 mins
BSTAR
0.000044081
Loading maneuver chart data...
Loading SW <> Apogee altitude chart data...
Loading historical data...
Loading historical data...
Loading historical data...
Loading historical data...
Loading historical data...
Loading historical data...
Loading historical data...

SL-14 R/B Visibility forecast

Observer location: undefined°, undefined°

Span
Click to sort rows by Start time (UTC) header in descending order
Start Az.
Max El. time (UTC)
Max El. Az.
Max El.
End time (UTC)
End Az.
15 mins2025-07-05 17:06:01.363Z1.258° NNE2025-07-05 17:13:01.363Z78.668° E41.266°2025-07-05 17:21:01.363Z158.336° S
11 mins2025-07-05 19:03:01.363Z322.082° NNW2025-07-05 19:08:01.363Z277.909° WNW23.982°2025-07-05 19:14:01.363Z228.044° WSW
15 mins2025-07-06 05:58:01.363Z170.682° S2025-07-06 06:05:01.363Z101.982° ESE42.517°2025-07-06 06:13:01.363Z13.7° NNE
12 mins2025-07-06 07:56:01.363Z244.938° WSW2025-07-06 08:02:01.363Z296.612° NW23.415°2025-07-06 08:08:01.363Z343.952° N
|